[[{"header":{"parameterUnit":"m.s-1","parameterCategory":1,"la1":30.2991,"la2":30.254,"lo1":-89.0895,"lo2":-89.0444,"dy":0.0017,"dx":0.0017,"nx":28,"ny":28,"refTime":"2023-08-07T09:00:00:Z","depth":0,"parameterNumber":2,"parameterNumberName":"U-component_of_WINDS"},"data":[0,0,0,0,0,0,0,0,0,0,0,0,0,0,0,0,0,0,0,0,0,0,0,0,0,0,0,0,0,0,0,0,0,0,0,0,0,0,0,0,0,0,0,0,0,0,0,0,0,0,0,0,0,0,0,0,0,0,3.4977,3.4978,0,3.5074,3.5075,3.5077,3.5019,3.5016,3.5013,3.5011,3.5109,3.5114,3.5119,0,0,0,0,0,0,0,0,0,0,0,0,0,3.4735,3.474,3.4976,3.4978,3.4979,3.5074,3.5076,3.5077,3.5019,3.5016,3.5012,3.5009,3.5107,3.5113,3.5119,0,0,0,0,0,0,0,0,0,0,0,0,0,3.4837,3.4742,3.4976,3.4962,3.4961,3.5074,3.5076,3.5077,3.502,3.5016,3.5012,3.5008,3.5105,3.5113,3.512,3.5252,0,0,3.5144,3.5148,0,0,0,0,0,0,0,0,3.4832,3.4846,3.4963,3.4963,3.4963,3.503,3.5026,3.5136,3.5021,3.4998,3.501,3.5006,3.5086,3.5095,3.5122,3.5257,3.5261,3.5145,3.515,3.5153,3.5155,0,0,0,0,0,0,0,3.4825,3.4842,3.5015,3.4964,3.4964,3.4949,3.4959,3.5047,3.5064,3.4999,3.4995,3.5008,3.5085,3.5115,3.5124,3.5262,3.5145,3.5152,3.5156,3.516,3.5505,3.551,0,0,0,0,0,0,3.4819,3.4836,3.5012,3.5018,3.4886,3.4957,3.4968,3.5013,3.5063,3.5066,3.5011,3.5005,3.5104,3.5115,3.5128,3.5282,3.5153,3.516,3.5165,3.5501,3.5506,3.5511,0,0,0,0,0,0,3.4814,3.4835,3.5008,3.4926,3.4947,3.4965,3.5016,3.5017,3.5047,3.5072,3.5074,3.5039,3.5101,3.5117,3.5221,3.5285,3.5164,3.5171,3.5496,3.5503,3.5509,3.5594,0,0,0,0,0,0,3.4808,3.4834,3.4885,3.4928,3.4952,3.5101,3.502,3.5022,3.5061,3.5053,3.5099,3.5102,3.5099,3.5209,3.5229,3.5293,3.5177,3.549,3.5499,3.5507,3.5585,3.5603,3.5617,0,0,0,0,0,3.4799,3.4906,3.4888,3.491,3.5016,3.5105,3.5118,3.5113,3.5066,3.5117,3.5132,3.5101,3.5275,3.5221,3.5242,3.531,3.5486,3.5496,3.5506,3.5578,3.5599,3.5617,0,0,0,0,0,0,3.487,3.4911,3.4892,3.5016,3.5057,3.5095,3.5159,3.5136,3.5191,3.5182,3.5172,3.5183,3.5291,3.5311,3.525,3.5438,3.5373,3.5388,3.542,3.5441,3.5456,3.5448,3.5184,0,0,0,0,0,3.49,3.497,3.5002,3.5108,3.5129,3.5141,3.5179,3.5172,3.5214,3.5231,3.5254,3.5296,3.5359,3.5401,3.5462,3.5589,3.5596,3.5645,3.5662,3.5675,3.5687,3.5751,3.5773,3.5545,3.5544,3.5544,0,0,3.4963,3.4994,3.5039,3.5123,3.5154,3.5224,3.5156,3.5234,3.5285,3.5242,3.5341,3.536,3.5406,3.5521,3.5573,3.5541,3.5752,3.5688,3.5698,3.5703,3.5764,3.5786,3.5805,3.5551,3.555,3.5549,0,0,3.5113,3.5145,3.5235,3.5267,3.5315,3.5322,3.5343,3.5384,3.5395,3.5494,3.5462,3.5523,3.5634,3.5667,3.5698,3.5858,3.5829,3.5878,3.5961,3.6024,3.6042,3.6058,3.6111,3.6131,3.589,3.589,3.5891,0,3.5184,3.529,3.5284,3.5364,3.54,3.5365,3.5454,3.5486,3.5551,3.5576,3.554,3.5676,3.5705,3.5825,3.5864,3.5892,3.5913,3.5871,3.604,3.6056,3.607,3.6121,3.6142,3.5896,3.5895,3.5895,3.5894,0,3.5374,3.5448,3.5514,3.5578,3.5622,3.5707,3.5711,3.5757,3.5745,3.5755,3.5854,3.5887,3.5952,3.598,3.597,3.6099,3.6077,3.6041,3.5975,3.6098,3.6145,3.6165,3.5903,3.5901,3.59,3.5899,0,0,3.557,3.5628,3.5652,3.5679,3.5729,3.5785,3.5867,3.593,3.5968,3.6014,3.608,3.6174,3.614,3.6175,3.6168,3.6224,3.6344,3.6181,3.6181,3.6207,3.6484,3.6509,3.6532,3.6327,3.6331,3.6334,3.6479,0,3.572,3.5864,3.5859,3.5992,3.6058,3.6025,3.6095,3.6132,3.6144,3.62,3.6212,3.6277,3.6229,3.625,3.6304,3.6318,3.6399,3.6308,3.6386,3.6389,3.6372,3.6557,3.6584,3.672,3.6498,3.6501,3.6503,0,3.5914,3.5966,3.6105,3.6142,3.617,3.6234,3.629,3.6345,3.6386,3.639,3.6428,3.6412,3.6492,3.6426,3.6535,3.6473,3.6505,3.6516,3.6522,3.6526,3.6451,3.6564,3.6763,3.6782,3.6533,3.6531,3.6529,0,3.6039,3.6144,3.624,3.6264,3.6311,3.6356,3.6377,3.6414,3.6451,3.65,3.6524,3.6582,3.6613,3.6658,3.6656,3.6609,3.6766,3.67,3.6769,3.6769,3.6801,3.6799,3.7006,3.6827,3.6827,3.6826,3.6826,0,3.6205,3.6291,3.6296,3.6355,3.6448,3.6442,3.6535,3.6552,3.6584,3.6644,3.662,3.6676,3.6672,3.6729,3.6728,3.6817,3.6832,3.6835,3.6833,3.6836,3.6835,3.6854,3.6844,3.6832,3.6831,3.683,3.6829,0,3.6359,3.6367,3.6468,3.6504,3.6515,3.6582,3.6612,3.6666,3.6675,3.6751,3.6768,3.6782,3.6847,3.685,3.6926,3.6925,3.7032,3.7021,3.7018,3.7015,3.7082,3.7074,3.7306,3.7335,3.7141,3.7143,3.7144,0,3.6463,3.6528,3.657,3.6609,3.6633,3.6696,3.6733,3.6729,3.6769,3.6819,3.6867,3.693,3.6979,3.7085,3.71,3.7157,3.7145,3.7223,3.7154,3.7153,3.7142,3.7137,3.7142,3.7235,3.7237,3.7239,3.7241,0,3.6646,3.6646,3.6702,3.6759,3.6804,3.6849,3.689,3.6923,3.6923,3.6969,3.7035,3.7074,3.715,3.7211,3.7266,3.7286,3.7263,3.7263,3.7281,3.7282,3.7276,3.7277,3.7051,3.7257,3.7255,3.7254,3.7253,3.7252,3.6776,3.6831,3.6868,3.693,3.6961,3.7,3.7052,3.7067,3.7122,3.7184,3.7178,3.725,3.7287,3.7358,3.7383,3.7438,3.7411,3.7439,3.7445,3.7451,3.7456,3.727,3.7449,3.7448,3.7448,3.7447,3.7447,0,3.6954,3.6976,3.7034,3.7092,3.714,3.7115,3.7159,3.72,3.7264,3.7301,3.735,3.7424,3.7483,3.7503,3.756,3.7601,3.7591,3.7615,3.7611,3.7615,3.7479,3.7456,3.7622,3.7622,3.7622,3.7622,3.7622,3.7622,3.7052,3.7142,3.7146,3.7251,3.7272,3.7343,3.737,3.7404,3.7433,3.7517,3.7566,3.7579,3.7608,3.7666,3.7719,3.7723,3.7743,3.7772,3.7771,3.7643,3.7625,3.7608,3.7586,3.7777,3.7777,3.7902,3.7903,3.7904]},{"header":{"parameterUnit":"m.s-1","parameterCategory":1,"la1":30.2991,"la2":30.254,"lo1":-89.0895,"lo2":-89.0444,"dy":0.0017,"dx":0.0017,"nx":28,"ny":28,"refTime":"2023-08-07T09:00:00:Z","depth":0,"parameterNumber":3,"parameterNumberName":"V-component_of_WINDS"},"data":[0,0,0,0,0,0,0,0,0,0,0,0,0,0,0,0,0,0,0,0,0,0,0,0,0,0,0,0,0,0,0,0,0,0,0,0,0,0,0,0,0,0,0,0,0,0,0,0,0,0,0,0,0,0,0,0,0,0,4.3274,4.3274,0,4.3333,4.3333,4.3334,4.3254,4.3251,4.3248,4.3245,4.3303,4.3307,4.3311,0,0,0,0,0,0,0,0,0,0,0,0,0,4.3086,4.309,4.3274,4.3274,4.3275,4.3333,4.3333,4.3334,4.3254,4.3251,4.3247,4.3244,4.3301,4.3306,4.3311,0,0,0,0,0,0,0,0,0,0,0,0,0,4.3159,4.3091,4.3273,4.3242,4.324,4.3332,4.3333,4.3334,4.3255,4.3251,4.3246,4.3242,4.33,4.3306,4.3312,4.3437,0,0,4.3331,4.3334,0,0,0,0,0,0,0,0,4.3155,4.3166,4.3246,4.3244,4.3242,4.3282,4.3288,4.3369,4.3256,4.3249,4.3245,4.324,4.3299,4.3305,4.3325,4.344,4.3442,4.3332,4.3336,4.3338,4.334,0,0,0,0,0,0,0,4.315,4.3163,4.3297,4.3247,4.3245,4.3223,4.3229,4.3303,4.3297,4.3249,4.3244,4.3252,4.3297,4.3319,4.3326,4.3443,4.3332,4.3337,4.3341,4.3343,4.3659,4.3664,0,0,0,0,0,0,4.3149,4.3159,4.3295,4.3299,4.3187,4.323,4.3237,4.3273,4.3296,4.3296,4.3256,4.3248,4.3311,4.3319,4.3328,4.3474,4.3338,4.3344,4.3348,4.3655,4.366,4.3665,0,0,0,0,0,0,4.3145,4.3162,4.3293,4.3227,4.3242,4.3238,4.328,4.3277,4.3299,4.3301,4.3299,4.328,4.3308,4.3319,4.341,4.3475,4.3347,4.3353,4.3649,4.3656,4.3663,4.3768,0,0,0,0,0,0,4.314,4.3161,4.321,4.3229,4.3246,4.3376,4.3284,4.3281,4.3311,4.3301,4.3324,4.3323,4.3305,4.3401,4.3416,4.3481,4.3358,4.3643,4.3652,4.3661,4.3759,4.3778,4.3794,0,0,0,0,0,4.3134,4.3237,4.3213,4.323,4.3307,4.338,4.3389,4.3368,4.3316,4.3364,4.3365,4.3322,4.3465,4.3411,4.3427,4.3495,4.3639,4.365,4.366,4.3751,4.3774,4.3794,0,0,0,0,0,0,4.3225,4.3239,4.3212,4.3325,4.3352,4.3366,4.3426,4.3393,4.3434,4.3424,4.3394,4.3399,4.3496,4.3505,4.3444,4.3616,4.3543,4.3558,4.3607,4.3629,4.3646,4.3642,4.3363,0,0,0,0,0,4.3259,4.3318,4.3326,4.3424,4.3439,4.3431,4.3461,4.3442,4.3468,4.3479,4.3486,4.3512,4.3562,4.3596,4.3643,4.376,4.3762,4.3814,4.3832,4.3846,4.3858,4.3918,4.3941,4.3699,4.3699,4.3699,0,0,4.3328,4.3343,4.3382,4.3443,4.3462,4.3521,4.3441,4.3508,4.3551,4.3488,4.3575,4.3581,4.3607,4.3712,4.3758,4.3721,4.3926,4.3859,4.3871,4.3875,4.3931,4.3954,4.3975,4.3706,4.3705,4.3704,0,0,4.3485,4.3503,4.3586,4.3606,4.3635,4.3628,4.3648,4.3667,4.3669,4.3755,4.3708,4.3759,4.3847,4.3867,4.3889,4.4051,4.4012,4.4067,4.4158,4.4217,4.4236,4.4253,4.4309,4.433,4.4079,4.4079,4.408,0,4.3567,4.3657,4.3633,4.3703,4.373,4.3676,4.3759,4.3779,4.3821,4.3841,4.38,4.3908,4.3922,4.4029,4.4068,4.4088,4.4108,4.4064,4.4236,4.4252,4.4268,4.4321,4.4342,4.4086,4.4085,4.4084,4.4084,0,4.3755,4.3818,4.3882,4.3924,4.3959,4.4035,4.402,4.4058,4.4035,4.4032,4.4119,4.4134,4.4181,4.4205,4.4184,4.4309,4.4285,4.4241,4.4167,4.4297,4.4347,4.4367,4.4095,4.4092,4.4091,4.4089,0,0,4.3972,4.4,4.4023,4.4041,4.4068,4.4115,4.4188,4.4235,4.4267,4.4297,4.4356,4.4431,4.4389,4.4414,4.4394,4.4446,4.4571,4.4394,4.4394,4.4426,4.4707,4.474,4.4764,4.4546,4.4549,4.4552,4.4704,0,4.4128,4.4255,4.4234,4.4356,4.4412,4.4361,4.4423,4.4446,4.4444,4.449,4.4488,4.4541,4.4483,4.4497,4.4546,4.4546,4.4627,4.4534,4.4598,4.4601,4.4593,4.479,4.4825,4.4968,4.4723,4.4727,4.4729,0,4.4326,4.4364,4.4492,4.4509,4.4531,4.4588,4.4629,4.4674,4.4697,4.4692,4.472,4.4689,4.4759,4.4685,4.478,4.4718,4.4742,4.4746,4.475,4.4755,4.4673,4.4799,4.5013,4.5034,4.476,4.4757,4.4755,0,4.447,4.4553,4.4639,4.4656,4.4678,4.4719,4.473,4.4749,4.4778,4.4813,4.4831,4.4873,4.4896,4.4929,4.491,4.4858,4.5008,4.4932,4.5004,4.5005,4.5038,4.5036,4.5258,4.5055,4.5055,4.5055,4.5054,0,4.4645,4.4725,4.4704,4.4757,4.4844,4.4819,4.4905,4.4909,4.4926,4.4978,4.4936,4.4985,4.4958,4.5004,4.499,4.5069,4.508,4.5077,4.5072,4.508,4.5081,4.5096,4.5085,4.506,4.5059,4.5058,4.5057,0,4.482,4.481,4.49,4.4913,4.4918,4.4981,4.4991,4.504,4.5035,4.51,4.5114,4.5106,4.5158,4.5143,4.5199,4.5189,4.529,4.5273,4.5283,4.5278,4.535,4.5343,4.5589,4.5619,4.5398,4.54,4.5402,0,4.4932,4.4992,4.5011,4.5043,4.5057,4.511,4.5139,4.5115,4.5147,4.5177,4.5221,4.527,4.5308,4.5393,4.5391,4.5433,4.5416,4.5499,4.5422,4.5428,4.5416,4.5412,4.5417,4.5515,4.5517,4.5519,4.5521,0,4.5132,4.5123,4.5168,4.521,4.5247,4.5279,4.5307,4.5335,4.5313,4.535,4.5404,4.5433,4.549,4.5538,4.5576,4.5585,4.5549,4.5545,4.5564,4.5573,4.5575,4.5574,4.5323,4.554,4.5538,4.5536,4.5535,4.5535,4.5278,4.5328,4.5349,4.5399,4.5418,4.5445,4.5491,4.5491,4.5535,4.5581,4.5563,4.5624,4.5643,4.5691,4.5705,4.575,4.5718,4.5746,4.5752,4.5759,4.5768,4.5569,4.5757,4.5757,4.5756,4.5756,4.5755,0,4.5474,4.5485,4.5531,4.5572,4.5611,4.5574,4.5603,4.5637,4.5692,4.5713,4.5751,4.5811,4.5857,4.5858,4.5901,4.5937,4.5921,4.5949,4.5946,4.5948,4.5795,4.5774,4.5961,4.5961,4.5961,4.5961,4.5961,4.5961,4.5581,4.5663,4.5657,4.5747,4.5757,4.5817,4.5836,4.5859,4.5876,4.5946,4.5984,4.5985,4.5997,4.604,4.608,4.6079,4.6096,4.613,4.6122,4.5979,4.5959,4.5939,4.592,4.6134,4.6134,4.6271,4.6272,4.6273]}]]